K0VXP-1 Weather Reports


Display with metric or nautical units.
time (UTC)temp
F
wind
direction
speed
MPH
gust
MPH
rain 1hr
in
rain 24hr
in
rain mn
in
humidity
%
barometer
mb
20211129110041 30 0 0.0 0.0 0.00 0.00 0.00 71 1030.9
20211129104539 30 0 0.0 0.0 0.00 0.00 0.00 71 1031.0
20211129103010 31 0 0.0 0.0 0.00 0.00 0.00 71 1031.1
20211129101514 29 0 0.0 0.0 0.00 0.00 0.00 72 1031.2
20211129100027 29 0 0.0 0.0 0.00 0.00 0.00 72 1031.1
20211129094514 29 0 0.0 0.0 0.00 0.00 0.00 72 1031.3
20211129093009 29 0 0.0 0.0 0.00 0.00 0.00 70 1031.3
20211129091540 30 0 0.0 0.0 0.00 0.00 0.00 69 1031.3
20211129090012 30 0 0.0 0.0 0.00 0.00 0.00 71 1031.4
20211129084514 29 0 0.0 0.0 0.00 0.00 0.00 72 1031.4
20211129083019 29 0 0.0 0.0 0.00 0.00 0.00 70 1031.5
20211129081519 30 0 0.0 0.0 0.00 0.00 0.00 69 1031.5
20211129080014 30 0 0.0 0.0 0.00 0.00 0.00 69 1031.5
20211129074541 30 0 0.0 0.0 0.00 0.00 0.00 69 1031.7
20211129073033 30 0 0.0 0.0 0.00 0.00 0.00 68 1031.8
20211129071530 31 0 0.0 0.0 0.00 0.00 0.00 66 1031.8
20211129070029 30 0 0.0 0.0 0.00 0.00 0.00 67 1032.0
20211129064519 31 0 0.0 0.0 0.00 0.00 0.00 66 1032.1
20211129063027 32 0 0.0 0.0 0.00 0.00 0.00 64 1032.2
20211129061514 33 0 0.0 0.0 0.00 0.00 0.00 65 1032.3
20211129060032 32 0 0.0 0.0 0.00 0.00 0.00 64 1032.2
20211129054523 32 0 0.0 0.0 0.00 0.00 0.00 63 1032.3
20211129053011 33 0 0.0 0.0 0.00 0.00 0.00 61 1032.1
20211129051521 33 0 0.0 0.0 0.00 0.00 0.00 61 1032.2
20211129050025 32 0 0.0 0.0 0.00 0.00 0.00 62 1032.4
20211129044512 34 0 0.0 0.0 0.00 0.00 0.00 59 1032.5
20211129043033 34 0 0.0 0.0 0.00 0.00 0.00 62 1032.5
20211129041511 34 0 0.0 0.0 0.00 0.00 0.00 59 1032.7
20211129040017 34 0 0.0 0.0 0.00 0.00 0.00 59 1032.7
20211129034514 34 0 0.0 0.0 0.00 0.00 0.00 59 1032.7
20211129033018 35 0 0.0 0.0 0.00 0.00 0.00 57 1032.6
20211129031523 36 0 0.0 0.0 0.00 0.00 0.00 56 1032.7
20211129030025 36 0 0.0 0.0 0.00 0.00 0.00 56 1032.5
20211129024550 36 0 0.0 0.0 0.00 0.00 0.00 56 1032.5
20211129023030 37 0 0.0 0.0 0.00 0.00 0.00 54 1032.5
20211129021531 37 0 0.0 0.0 0.00 0.00 0.00 53 1032.5
20211129020012 38 0 0.0 0.0 0.00 0.00 0.00 53 1032.4
20211129014512 37 0 0.0 0.0 0.00 0.00 0.00 53 1032.3
20211129013014 38 0 0.0 0.0 0.00 0.00 0.00 52 1032.3
20211129011536 38 0 0.0 0.0 0.00 0.00 0.00 51 1031.8
20211129010037 39 0 0.0 0.0 0.00 0.00 0.00 50 1031.7
20211129004541 40 0 0.0 0.0 0.00 0.00 0.00 47 1031.7
20211129003021 43 0 0.0 0.0 0.00 0.00 0.00 42 1031.5
20211129001522 44 0 0.0 0.0 0.00 0.00 0.00 42 1031.3
20211129000009 46 0 0.0 0.0 0.00 0.00 0.00 40 1031.2
20211128234522 49 0 0.0 0.0 0.00 0.00 0.00 37 1031.2
20211128233020 51 0 0.0 0.0 0.00 0.00 0.00 36 1031.1
20211128231512 52 0 0.0 0.0 0.00 0.00 0.00 34 1030.9
20211128230034 53 0 0.0 0.0 0.00 0.00 0.00 34 1030.8
20211128224509 53 0 0.0 0.0 0.00 0.00 0.00 34 1030.7
20211128223107 54 0 0.0 0.0 0.00 0.00 0.00 33 1030.7
20211128221513 54 0 0.0 0.0 0.00 0.00 0.00 33 1030.6
20211128220035 53 0 0.0 0.0 0.00 0.00 0.00 33 1030.6
20211128214522 54 0 0.0 1.0 0.00 0.00 0.00 33 1030.6
20211128213031 54 0 4.0 8.0 0.00 0.00 0.00 33 1030.5
20211128211542 54 0 0.0 0.0 0.00 0.00 0.00 32 1030.5
20211128210025 53 0 0.0 7.0 0.00 0.00 0.00 34 1030.7
20211128204518 52 222 3.0 7.0 0.00 0.00 0.00 34 1031.0
20211128203012 51 0 0.0 7.0 0.00 0.00 0.00 36 1031.3
20211128201509 50 209 2.0 7.0 0.00 0.00 0.00 38 1031.5
20211128200033 49 238 3.0 7.0 0.00 0.00 0.00 41 1031.7
20211128194510 48 0 0.0 6.0 0.00 0.00 0.00 42 1031.9
20211128193012 47 236 3.0 7.0 0.00 0.00 0.00 43 1032.0
20211128191539 46 236 4.0 8.0 0.00 0.00 0.00 44 1032.2
20211128190014 45 234 3.0 7.0 0.00 0.00 0.00 47 1032.4
20211128184635 44 0 2.0 7.0 0.00 0.00 0.00 48 1032.4
20211128183009 44 235 0.0 4.0 0.00 0.00 0.00 48 1032.6
20211128181547 43 234 1.0 5.0 0.00 0.00 0.00 50 1032.8
20211128180013 40 0 0.0 0.0 0.00 0.00 0.00 54 1033.0
20211128174511 39 0 0.0 6.0 0.00 0.00 0.00 56 1033.3
20211128173010 39 0 2.0 6.0 0.00 0.00 0.00 56 1033.3
20211128171524 39 223 2.0 5.0 0.00 0.00 0.00 55 1033.4
20211128170027 38 0 0.0 4.0 0.00 0.00 0.00 55 1033.5
20211128164512 36 13 0.0 3.0 0.00 0.00 0.00 58 1033.5
20211128163016 35 0 1.0 5.0 0.00 0.00 0.00 61 1033.5
20211128161514 33 43 2.0 6.0 0.00 0.00 0.00 63 1033.4
20211128160015 32 0 0.0 0.0 0.00 0.00 0.00 63 1033.3
20211128154518 32 0 0.0 3.0 0.00 0.00 0.00 64 1033.3
20211128153017 30 0 0.0 0.0 0.00 0.00 0.00 67 1033.3
20211128151540 29 0 0.0 0.0 0.00 0.00 0.00 68 1033.3
20211128150013 29 0 0.0 0.0 0.00 0.00 0.00 68 1033.3
20211128144510 28 0 0.0 0.0 0.00 0.00 0.00 71 1033.1
20211128143013 25 0 0.0 0.0 0.00 0.00 0.00 74 1033.1
20211128141522 25 0 0.0 2.0 0.00 0.00 0.00 74 1033.1
20211128140020 24 49 2.0 4.0 0.00 0.00 0.00 72 1032.9
20211128134532 26 49 1.0 3.0 0.00 0.00 0.00 71 1032.6
20211128133024 26 0 0.0 0.0 0.00 0.00 0.00 73 1032.8
20211128131510 24 0 0.0 3.0 0.00 0.00 0.00 74 1032.5
20211128130028 24 49 2.0 3.0 0.00 0.00 0.00 72 1032.3
20211128124515 25 49 1.0 2.0 0.00 0.00 0.00 72 1032.0
20211128123021 26 0 0.0 0.0 0.00 0.00 0.00 70 1032.0
20211128121553 26 0 0.0 0.0 0.00 0.00 0.00 70 1032.0
20211128120009 27 0 0.0 0.0 0.00 0.00 0.00 69 1031.6
20211128114512 27 0 0.0 0.0 0.00 0.00 0.00 71 1032.0
20211128113017 26 49 2.0 3.0 0.00 0.00 0.00 72 1031.6
20211128111510 26 49 2.0 5.0 0.00 0.00 0.00 70 1031.5